#timestamp,LO_Frequency,Hit,StdDev 
1633719615.8,286046999.7,N
1633719635.6,286047002.4,N
1633719655.5,286047001.7,N
1633719675.3,286047002.0,N
1633719695.1,286047001.9,N
1633719715.9,286047001.6,N
1633719735.7,286047001.5,N
1633719755.5,286047004.3,Y
1633719775.4,286047000.4,P
1633719795.2,286047002.8,P
1633719815.0,286047002.7,N
1633719815.9,286047002.7,N
1633719835.8,286047001.5,N
1633719855.6,286047001.4,N
1633719875.4,286047003.5,Y
1633719895.3,286047002.3,P
1633719915.1,286047002.5,P
1633719935.8,286047002.0,P
1633719955.7,286047002.3,Y
1633719975.5,286047000.5,P
1633719995.3,286047000.8,N
1633720015.2,286047001.0,N
1633720035.0,286047000.7,N
1633720035.9,286047000.7,N
1633720055.8,286047000.4,N
1633720075.6,286046999.8,N
1633720095.4,286046999.7,N
1633720115.2,286047001.7,N
1633720135.1,286047003.9,Y
1633720136.0,286047003.9,P
1633720155.8,286047001.5,N
1633720175.7,286047002.3,N
1633720195.5,286047001.6,N
1633720215.3,286047002.0,N
1633720235.2,286047002.7,N
1633720255.9,286047001.5,N
1633720275.7,286047000.1,N
1633720295.6,286047000.0,N
1633720315.4,286047002.1,N
1633720335.2,286047002.1,N
1633720355.1,286047001.4,N
1633720356.0,286047001.4,N
1633720375.8,286047004.2,Y
1633720395.6,286046999.8,P
1633720415.5,286047000.1,N
1633720435.3,286047002.5,P
1633720455.1,286047002.0,N
1633720475.9,286047002.4,N
1633720495.7,286047001.4,N
1633720515.5,286047004.0,Y
1633720535.4,286047002.5,P
1633720555.2,286047002.2,P
1633720575.0,286047000.1,N
1633720575.9,286047000.1,N
1633720595.8,286047000.0,N
1633720615.6,286047002.4,N
1633720635.4,286047000.2,N
1633720655.3,286047000.2,N
1633720675.1,286047001.9,N
1633720676.0,286047001.9,N
1633720695.8,286047001.6,N
1633720715.7,286047003.5,Y
1633720735.5,286047001.5,P
1633720755.3,286047004.1,P
1633720775.2,286047004.2,P
1633720795.0,286047003.9,N
1633720795.9,286047003.9,N
1633720815.7,286047002.3,N
1633720835.6,286047001.6,N
1633720855.4,286047002.2,N
1633720875.2,286047001.7,N
1633720895.1,286047002.2,N
1633720896.0,286047002.2,N
1633720915.8,286047002.6,N
1633720935.6,286047001.5,N
1633720955.5,286047004.4,Y
1633720975.3,286047001.1,P
1633720995.1,286047000.4,N
1633721015.9,286046999.9,N
1633721035.7,286047002.5,N
1633721055.5,286047002.3,N
1633721075.4,286047002.7,N
1633721095.2,286047002.0,N
1633721115.0,286047002.7,N
1633721115.9,286047002.7,N
1633721135.8,286047001.9,N
1633721155.6,286047002.3,N
1633721175.4,286047001.8,N
1633721195.3,286047002.4,N
1633721215.1,286047000.1,N
1633721235.8,286047002.4,N
1633721255.7,286046999.7,N
1633721275.5,286046999.8,N
1633721295.3,286047002.3,N
1633721315.2,286047002.2,N
1633721335.0,286047002.6,N
1633721335.9,286047002.6,N
1633721355.7,286047002.8,N
1633721375.6,286047002.8,N
1633721395.4,286047002.0,N
1633721415.2,286047002.1,N
1633721435.1,286047001.9,N
1633721436.0,286047001.9,N
1633721455.8,286047002.4,N
1633721475.6,286047002.1,N
1633721495.5,286047002.5,N
1633721515.3,286046999.8,N
1633721535.1,286047002.6,N
1633721555.9,286047000.2,N
1633721575.7,286047002.6,N
1633721595.5,286047002.7,N
1633721615.4,286046999.9,N
1633721635.2,286047000.1,N
1633721655.0,286047000.5,N
1633721655.9,286047000.5,N
1633721675.8,286046998.3,N
1633721695.6,286046998.1,N
1633721715.4,286047001.0,N
1633721735.3,286047001.1,N
1633721755.1,286047000.3,N
1633721775.8,286047000.5,N
1633721795.7,286047000.6,N
1633721815.5,286046998.3,N
1633721835.3,286046998.8,N
1633721855.2,286047001.2,N
1633721875.0,286047000.7,N
1633721875.9,286047000.7,N
1633721895.7,286046998.3,N
1633721915.6,286046998.4,N
1633721935.4,286047000.8,N
1633721955.2,286046998.8,N
1633721975.1,286046999.5,N
1633721976.0,286046999.5,N
1633721995.8,286046998.8,N
1633722015.6,286046997.0,N
1633722035.5,286046995.3,Y
1633722055.3,286046997.7,P
1633722075.2,286046998.0,N
1633722095.9,286046997.1,N
1633722115.7,286046995.0,Y
1633722135.6,286046999.3,P
1633722155.4,286046996.7,P
1633722175.2,286046998.0,N
1633722195.1,286046996.8,Y
1633722196.0,286046996.8,P
1633722215.8,286046998.2,N
1633722235.6,286046998.1,P
1633722255.5,286047000.6,N
1633722275.3,286046998.3,N
1633722295.1,286046998.3,N
1633722315.9,286046999.4,N
1633722335.7,286046997.1,N
1633722355.5,286046999.2,N
1633722375.4,286046996.7,Y
1633722395.2,286046999.2,P
1633722415.0,286046998.8,P
1633722415.9,286046998.8,P
1633722435.8,286046998.7,Y
1633722455.6,286047001.2,P
1633722475.4,286046998.1,N
1633722495.3,286046998.3,N
1633722515.1,286046998.6,N
1633722535.8,286046998.4,N
1633722555.7,286046998.8,N
1633722575.5,286046996.8,Y
1633722595.3,286046999.1,P
1633722615.2,286046999.6,P
1633722635.0,286046998.9,P
1633722635.9,286046998.9,Y
1633722655.7,286047001.1,P
1633722675.6,286047001.1,N
1633722695.4,286046998.8,N
1633722715.2,286047001.0,N
1633722735.1,286046998.5,N
1633722736.0,286046998.5,N
1633722755.8,286046998.7,N
1633722775.6,286046999.6,N
1633722795.5,286046997.1,N
1633722815.3,286046996.7,N
1633722835.1,286046997.1,N
1633722855.9,286046997.8,N
1633722875.7,286046997.9,N
1633722895.5,286046997.7,N
1633722915.4,286046998.0,N
1633722935.2,286046997.7,N
1633722955.0,286046995.5,Y
1633722956.0,286046995.5,P
1633722975.8,286046996.5,N
1633722995.6,286046996.9,N
1633723015.4,286046996.7,N
1633723035.3,286046999.2,N
1633723055.1,286046997.1,N
1633723075.9,286046995.0,Y
1633723095.7,286046998.2,P
1633723115.5,286046999.0,N
1633723135.4,286046999.3,N
1633723155.2,286046998.7,N
1633723175.0,286046998.6,N
1633723175.9,286046998.6,N
1633723195.8,286047001.1,N
